{"data":{"norad_id":63767,"epoch":"2026-05-24T23:17:03.514848Z","epoch_age_seconds":73760,"freshness":"FRESH","line1":"1 63767U 25089S   26144.97017957  .00023779  00000+0  87057-3 0  9992","line2":"2 63767  43.0033 334.4457 0001346 272.1175  87.9523 15.27591378 60629","mean_motion":15.27591378,"eccentricity":0.0001346,"inclination_deg":43.0033,"raan_deg":334.4457,"arg_perigee_deg":272.1175,"mean_anomaly_deg":87.9523,"bstar":0.00087057,"rev_number":6062,"period_min":94.266046584089,"perigee_km":482.09151536315,"apogee_km":483.93853748867,"semimajor_km":6861.1520264259,"source":"CELESTRAK","updated_at":"2026-05-25T13:38:20.106503Z"}}